Time,TemperatureF,DewpointF,PressureIn,WindDirection,WindDirectionDegrees,WindSpeedMPH,WindSpeedGustMPH,Humidity,HourlyPrecipIn,Conditions,Clouds,dailyrainin,SoftwareType,DateUTC
2013-01-26 00:03:00,18.5,14.0,30.06,WSW,250,0.0,0.0,83,0.00,,,0.00,weatherlink.com 1.10,2013-01-26 05:03:00,
2013-01-26 00:18:00,18.4,14.0,30.06,SE,146,0.0,0.0,84,0.00,,,0.00,weatherlink.com 1.10,2013-01-26 05:18:00,
2013-01-26 00:33:00,18.6,14.0,30.06,SSE,158,0.0,1.0,83,0.00,,,0.00,weatherlink.com 1.10,2013-01-26 05:33:00,
2013-01-26 00:48:00,18.4,14.0,30.06,SE,124,0.0,1.0,84,0.00,,,0.00,weatherlink.com 1.10,2013-01-26 05:48:00,
2013-01-26 01:03:00,18.0,14.0,30.06,NNE,18,1.0,1.0,85,0.00,,,0.00,weatherlink.com 1.10,2013-01-26 06:03:00,
2013-01-26 01:18:00,17.9,14.0,30.06,NNE,26,0.0,1.0,85,0.00,,,0.00,weatherlink.com 1.10,2013-01-26 06:18:00,
2013-01-26 01:33:00,17.9,14.0,30.06,NNE,29,0.0,0.0,85,0.00,,,0.00,weatherlink.com 1.10,2013-01-26 06:33:00,
2013-01-26 01:48:00,17.4,14.0,30.06,NNE,29,0.0,0.0,85,0.00,,,0.00,weatherlink.com 1.10,2013-01-26 06:48:00,
2013-01-26 02:03:00,17.1,14.0,30.07,NNE,29,0.0,0.0,87,0.00,,,0.00,weatherlink.com 1.10,2013-01-26 07:03:00,
2013-01-26 02:18:00,17.3,14.0,30.08,NNE,29,0.0,0.0,87,0.00,,,0.00,weatherlink.com 1.10,2013-01-26 07:18:00,
2013-01-26 02:33:00,17.3,14.0,30.08,NNE,29,0.0,0.0,86,0.00,,,0.00,weatherlink.com 1.10,2013-01-26 07:33:00,
2013-01-26 02:48:00,17.1,14.0,30.08,NNE,29,0.0,0.0,86,0.00,,,0.00,weatherlink.com 1.10,2013-01-26 07:48:00,
2013-01-26 03:03:00,17.1,14.0,30.09,WSW,249,0.0,0.0,87,0.00,,,0.00,weatherlink.com 1.10,2013-01-26 08:03:00,
2013-01-26 03:18:00,17.4,14.0,30.09,WSW,253,0.0,1.0,87,0.00,,,0.00,weatherlink.com 1.10,2013-01-26 08:18:00,
2013-01-26 03:33:00,17.4,14.0,30.09,WSW,253,0.0,0.0,87,0.00,,,0.00,weatherlink.com 1.10,2013-01-26 08:33:00,
2013-01-26 03:48:00,17.2,14.0,30.09,WSW,253,0.0,0.0,86,0.00,,,0.00,weatherlink.com 1.10,2013-01-26 08:48:00,
2013-01-26 04:03:00,17.2,14.0,30.10,WSW,253,0.0,0.0,87,0.00,,,0.00,weatherlink.com 1.10,2013-01-26 09:03:00,
2013-01-26 04:18:00,17.8,15.0,30.10,South,189,0.0,1.0,87,0.00,,,0.00,weatherlink.com 1.10,2013-01-26 09:18:00,
2013-01-26 04:33:00,18.2,15.0,30.11,SW,219,0.0,1.0,87,0.00,,,0.00,weatherlink.com 1.10,2013-01-26 09:33:00,
2013-01-26 04:48:00,18.3,15.0,30.11,SSE,166,0.0,1.0,86,0.00,,,0.00,weatherlink.com 1.10,2013-01-26 09:48:00,
2013-01-26 05:03:00,17.9,15.0,30.11,SSE,167,0.0,0.0,87,0.00,,,0.00,weatherlink.com 1.10,2013-01-26 10:03:00,
2013-01-26 05:18:00,17.7,15.0,30.12,SSE,167,0.0,0.0,87,0.00,,,0.00,weatherlink.com 1.10,2013-01-26 10:18:00,
2013-01-26 05:33:00,17.8,15.0,30.12,SSE,166,0.0,0.0,87,0.00,,,0.00,weatherlink.com 1.10,2013-01-26 10:33:00,
2013-01-26 05:48:00,17.9,15.0,30.13,SSE,167,0.0,0.0,87,0.00,,,0.00,weatherlink.com 1.10,2013-01-26 10:48:00,
2013-01-26 06:03:00,17.7,15.0,30.13,SSE,167,0.0,0.0,87,0.00,,,0.00,weatherlink.com 1.10,2013-01-26 11:03:00,
2013-01-26 06:18:00,17.9,15.0,30.14,SSE,158,0.0,1.0,88,0.00,,,0.00,weatherlink.com 1.10,2013-01-26 11:18:00,
2013-01-26 06:33:00,18.3,15.0,30.15,SSE,154,1.0,2.0,87,0.00,,,0.00,weatherlink.com 1.10,2013-01-26 11:33:00,
2013-01-26 06:48:00,18.3,15.0,30.15,SSE,148,0.0,1.0,87,0.00,,,0.00,weatherlink.com 1.10,2013-01-26 11:48:00,
2013-01-26 07:03:00,18.2,15.0,30.16,SSE,158,1.0,1.0,88,0.00,,,0.00,weatherlink.com 1.10,2013-01-26 12:03:00,
2013-01-26 07:19:00,18.2,15.0,30.16,SSE,154,0.0,1.0,88,0.00,,,0.00,weatherlink.com 1.10,2013-01-26 12:19:00,
2013-01-26 07:34:00,18.3,15.0,30.17,SSW,193,0.0,2.0,88,0.00,,,0.00,weatherlink.com 1.10,2013-01-26 12:34:00,
2013-01-26 07:49:00,18.5,15.0,30.17,ESE,103,0.0,1.0,87,0.00,,,0.00,weatherlink.com 1.10,2013-01-26 12:49:00,
2013-01-26 08:04:00,18.6,15.0,30.17,ESE,110,0.0,0.0,87,0.00,,,0.00,weatherlink.com 1.10,2013-01-26 13:04:00,
2013-01-26 08:19:00,18.6,15.0,30.17,ESE,110,0.0,0.0,87,0.00,,,0.00,weatherlink.com 1.10,2013-01-26 13:19:00,
2013-01-26 08:34:00,19.2,16.0,30.18,East,101,0.0,0.0,86,0.00,,,0.00,weatherlink.com 1.10,2013-01-26 13:34:00,
2013-01-26 08:49:00,20.5,17.0,30.18,East,100,0.0,0.0,85,0.00,,,0.00,weatherlink.com 1.10,2013-01-26 13:49:00,
2013-01-26 09:04:00,21.6,17.0,30.19,East,101,0.0,0.0,81,0.00,,,0.00,weatherlink.com 1.10,2013-01-26 14:04:00,
2013-01-26 09:19:00,22.0,17.0,30.19,East,101,0.0,0.0,80,0.00,,,0.00,weatherlink.com 1.10,2013-01-26 14:19:00,
2013-01-26 09:34:00,23.0,17.0,30.20,East,101,0.0,0.0,79,0.00,,,0.00,weatherlink.com 1.10,2013-01-26 14:34:00,
2013-01-26 09:49:00,24.2,18.0,30.20,SE,142,1.0,1.0,76,0.00,,,0.00,weatherlink.com 1.10,2013-01-26 14:49:00,
2013-01-26 10:04:00,25.4,18.0,30.21,SSE,153,0.0,0.0,74,0.00,,,0.00,weatherlink.com 1.10,2013-01-26 15:04:00,
2013-01-26 10:19:00,25.7,18.0,30.22,WSW,243,0.0,3.0,72,0.00,,,0.00,weatherlink.com 1.10,2013-01-26 15:19:00,
2013-01-26 10:34:00,26.3,19.0,30.23,SE,143,0.0,3.0,73,0.00,,,0.00,weatherlink.com 1.10,2013-01-26 15:34:00,
2013-01-26 10:49:00,24.8,18.0,30.23,WSW,256,2.0,4.0,76,0.00,,,0.00,weatherlink.com 1.10,2013-01-26 15:49:00,
2013-01-26 11:04:00,25.8,19.0,30.24,SW,226,0.0,1.0,75,0.00,,,0.00,weatherlink.com 1.10,2013-01-26 16:04:00,
2013-01-26 11:19:00,27.4,19.0,30.23,SSE,159,0.0,2.0,71,0.00,,,0.00,weatherlink.com 1.10,2013-01-26 16:19:00,
2013-01-26 11:34:00,27.9,19.0,30.23,SSE,153,0.0,1.0,70,0.00,,,0.00,weatherlink.com 1.10,2013-01-26 16:34:00,
2013-01-26 11:49:00,28.4,19.0,30.21,SE,126,1.0,4.0,68,0.00,,,0.00,weatherlink.com 1.10,2013-01-26 16:49:00,
2013-01-26 12:04:00,28.1,20.0,30.20,NNE,26,0.0,3.0,72,0.00,,,0.00,weatherlink.com 1.10,2013-01-26 17:04:00,
2013-01-26 12:19:00,29.5,20.0,30.20,SSE,161,1.0,5.0,67,0.00,,,0.00,weatherlink.com 1.10,2013-01-26 17:19:00,
2013-01-26 12:34:00,28.9,19.0,30.20,West,264,3.0,4.0,66,0.00,,,0.00,weatherlink.com 1.10,2013-01-26 17:34:00,
2013-01-26 12:49:00,29.6,19.0,30.20,North,356,1.0,5.0,65,0.00,,,0.00,weatherlink.com 1.10,2013-01-26 17:49:00,
2013-01-26 13:04:00,29.7,20.0,30.20,WSW,250,2.0,6.0,66,0.00,,,0.00,weatherlink.com 1.10,2013-01-26 18:04:00,
2013-01-26 13:19:00,29.5,19.0,30.20,North,4,0.0,5.0,65,0.00,,,0.00,weatherlink.com 1.10,2013-01-26 18:19:00,
2013-01-26 13:34:00,28.0,18.0,30.20,WSW,246,0.0,6.0,67,0.01,,,0.01,weatherlink.com 1.10,2013-01-26 18:34:00,
2013-01-26 13:49:00,28.5,18.0,30.20,WNW,301,3.0,5.0,66,0.01,,,0.01,weatherlink.com 1.10,2013-01-26 18:49:00,
2013-01-26 14:05:00,28.2,19.0,30.20,WNW,294,5.0,7.0,68,0.01,,,0.01,weatherlink.com 1.10,2013-01-26 19:05:00,
2013-01-26 14:34:00,28.1,20.0,30.21,WNW,296,5.0,6.0,71,0.00,,,0.01,weatherlink.com 1.10,2013-01-26 19:34:00,
2013-01-26 14:49:00,28.3,21.0,30.21,West,277,0.0,3.0,73,0.00,,,0.01,weatherlink.com 1.10,2013-01-26 19:49:00,
2013-01-26 15:04:00,28.5,21.0,30.22,West,279,1.0,4.0,74,0.00,,,0.01,weatherlink.com 1.10,2013-01-26 20:04:00,
2013-01-26 15:19:00,28.5,21.0,30.22,WNW,290,0.0,3.0,72,0.00,,,0.01,weatherlink.com 1.10,2013-01-26 20:19:00,
2013-01-26 15:34:00,28.7,21.0,30.23,NW,305,0.0,3.0,73,0.00,,,0.01,weatherlink.com 1.10,2013-01-26 20:34:00,
2013-01-26 16:04:00,29.2,21.0,30.23,West,270,2.0,4.0,72,0.00,,,0.01,weatherlink.com 1.10,2013-01-26 21:04:00,
2013-01-26 16:19:00,29.5,22.0,30.24,WNW,288,2.0,4.0,72,0.00,,,0.01,weatherlink.com 1.10,2013-01-26 21:19:00,
2013-01-26 16:35:00,29.1,21.0,30.25,WSW,248,2.0,5.0,72,0.00,,,0.01,weatherlink.com 1.10,2013-01-26 21:35:00,
2013-01-26 16:50:00,28.5,21.0,30.25,NNE,20,1.0,2.0,73,0.00,,,0.01,weatherlink.com 1.10,2013-01-26 21:50:00,
2013-01-26 17:05:00,27.7,21.0,30.26,NNW,345,3.0,4.0,75,0.00,,,0.01,weatherlink.com 1.10,2013-01-26 22:05:00,
2013-01-26 17:20:00,27.1,20.0,30.26,ENE,75,0.0,4.0,75,0.00,,,0.01,weatherlink.com 1.10,2013-01-26 22:20:00,
2013-01-26 17:35:00,26.7,20.0,30.27,NNE,15,3.0,4.0,76,0.00,,,0.01,weatherlink.com 1.10,2013-01-26 22:35:00,
2013-01-26 17:50:00,26.1,21.0,30.28,NE,47,3.0,6.0,82,0.00,,,0.01,weatherlink.com 1.10,2013-01-26 22:50:00,
2013-01-26 18:05:00,25.9,21.0,30.29,NE,36,2.0,3.0,83,0.00,,,0.01,weatherlink.com 1.10,2013-01-26 23:05:00,
2013-01-26 18:20:00,25.8,21.0,30.30,NNE,18,3.0,4.0,83,0.00,,,0.01,weatherlink.com 1.10,2013-01-26 23:20:00,
2013-01-26 18:35:00,25.6,21.0,30.30,SE,129,0.0,2.0,84,0.00,,,0.01,weatherlink.com 1.10,2013-01-26 23:35:00,
2013-01-26 18:50:00,25.6,21.0,30.30,ESE,105,2.0,2.0,84,0.00,,,0.01,weatherlink.com 1.10,2013-01-26 23:50:00,
2013-01-26 19:05:00,25.7,22.0,30.31,East,89,0.0,1.0,84,0.00,,,0.01,weatherlink.com 1.10,2013-01-27 00:05:00,
2013-01-26 19:20:00,25.7,22.0,30.31,East,84,0.0,1.0,84,0.00,,,0.01,weatherlink.com 1.10,2013-01-27 00:20:00,
2013-01-26 19:35:00,25.7,22.0,30.32,NNW,330,0.0,1.0,84,0.00,,,0.01,weatherlink.com 1.10,2013-01-27 00:35:00,
2013-01-26 19:50:00,25.9,21.0,30.33,West,275,1.0,3.0,83,0.00,,,0.01,weatherlink.com 1.10,2013-01-27 00:50:00,
2013-01-26 20:05:00,26.1,21.0,30.33,West,270,2.0,3.0,82,0.00,,,0.01,weatherlink.com 1.10,2013-01-27 01:05:00,
2013-01-26 20:20:00,25.9,21.0,30.33,WNW,291,1.0,3.0,82,0.00,,,0.01,weatherlink.com 1.10,2013-01-27 01:20:00,
2013-01-26 20:35:00,25.1,21.0,30.34,ESE,113,0.0,0.0,83,0.00,,,0.01,weatherlink.com 1.10,2013-01-27 01:35:00,
2013-01-26 20:50:00,24.4,20.0,30.34,ESE,104,1.0,2.0,84,0.00,,,0.01,weatherlink.com 1.10,2013-01-27 01:50:00,
2013-01-26 21:05:00,23.4,19.0,30.35,West,266,0.0,1.0,84,0.00,,,0.01,weatherlink.com 1.10,2013-01-27 02:05:00,
2013-01-26 21:20:00,22.1,19.0,30.36,West,266,0.0,0.0,86,0.00,,,0.01,weatherlink.com 1.10,2013-01-27 02:20:00,
2013-01-26 21:35:00,22.4,19.0,30.36,West,266,0.0,0.0,88,0.00,,,0.01,weatherlink.com 1.10,2013-01-27 02:35:00,
2013-01-26 21:50:00,24.7,20.0,30.37,West,274,0.0,3.0,82,0.00,,,0.01,weatherlink.com 1.10,2013-01-27 02:50:00,
2013-01-26 22:05:00,23.8,19.0,30.38,SE,139,0.0,1.0,82,0.00,,,0.01,weatherlink.com 1.10,2013-01-27 03:05:00,
2013-01-26 22:20:00,23.5,19.0,30.39,West,271,1.0,2.0,83,0.00,,,0.01,weatherlink.com 1.10,2013-01-27 03:20:00,
2013-01-26 22:35:00,25.3,20.0,30.39,West,278,1.0,3.0,80,0.00,,,0.01,weatherlink.com 1.10,2013-01-27 03:35:00,
2013-01-26 22:50:00,26.0,19.0,30.40,West,271,0.0,1.0,76,0.00,,,0.01,weatherlink.com 1.10,2013-01-27 03:50:00,
2013-01-26 23:05:00,24.8,19.0,30.40,SSE,159,0.0,1.0,79,0.00,,,0.01,weatherlink.com 1.10,2013-01-27 04:05:00,
2013-01-26 23:20:00,24.2,19.0,30.40,SE,134,1.0,1.0,81,0.00,,,0.01,weatherlink.com 1.10,2013-01-27 04:20:00,
2013-01-26 23:35:00,24.2,19.0,30.40,SSE,166,0.0,3.0,82,0.00,,,0.01,weatherlink.com 1.10,2013-01-27 04:35:00,
2013-01-26 23:50:00,25.1,19.0,30.41,SW,218,0.0,3.0,79,0.00,,,0.01,weatherlink.com 1.10,2013-01-27 04:50:00,